TimeCDT,TemperatureF,Dew PointF,Humidity,Sea Level PressureIn,VisibilityMPH,Wind Direction,Wind SpeedMPH,Gust SpeedMPH,PrecipitationIn,Events,Conditions,WindDirDegrees,DateUTC
12:53 AM,55.0,34.0,45,30.27,10.0,East,9.2,-,N/A,,Clear,100,2013-10-14 05:53:00
1:53 AM,54.0,34.0,47,30.28,10.0,East,5.8,-,N/A,,Clear,100,2013-10-14 06:53:00
2:53 AM,54.0,34.0,47,30.26,10.0,East,8.1,-,N/A,,Clear,100,2013-10-14 07:53:00
3:53 AM,54.0,35.1,49,30.24,10.0,ESE,6.9,-,N/A,,Clear,110,2013-10-14 08:53:00
4:53 AM,54.0,36.0,51,30.22,10.0,ESE,8.1,-,N/A,,Clear,110,2013-10-14 09:53:00
5:53 AM,55.9,36.0,47,30.19,10.0,SE,11.5,20.7,N/A,,Clear,130,2013-10-14 10:53:00
6:53 AM,55.9,36.0,47,30.20,10.0,SE,15.0,19.6,N/A,,Clear,130,2013-10-14 11:53:00
7:53 AM,55.0,37.0,51,30.19,10.0,SE,13.8,21.9,N/A,,Clear,130,2013-10-14 12:53:00
8:53 AM,55.0,37.9,53,30.18,10.0,SE,11.5,19.6,N/A,,Mostly Cloudy,130,2013-10-14 13:53:00
9:53 AM,59.0,39.0,48,30.17,10.0,SE,18.4,24.2,N/A,,Clear,140,2013-10-14 14:53:00
10:53 AM,62.1,39.0,43,30.13,10.0,SE,18.4,27.6,N/A,,Clear,140,2013-10-14 15:53:00
11:53 AM,64.9,43.0,45,30.11,10.0,SE,18.4,26.5,N/A,,Clear,140,2013-10-14 16:53:00
12:53 PM,66.9,46.0,47,30.08,10.0,SSE,18.4,28.8,N/A,,Scattered Clouds,160,2013-10-14 17:53:00
1:53 PM,63.0,50.0,63,30.05,10.0,SSE,15.0,-,0.00,Rain,Light Rain,160,2013-10-14 18:53:00
2:08 PM,60.8,51.8,72,30.05,9.0,SSE,10.4,-,0.00,Rain,Light Rain,150,2013-10-14 19:08:00
2:23 PM,60.8,51.8,72,30.04,6.0,SSE,13.8,-,0.03,Rain,Light Rain,150,2013-10-14 19:23:00
2:32 PM,60.8,53.6,77,30.04,9.0,SSE,11.5,-,0.03,Rain,Light Rain,150,2013-10-14 19:32:00
2:53 PM,59.0,53.1,81,30.02,7.0,SE,12.7,-,0.04,Rain,Light Rain,140,2013-10-14 19:53:00
3:53 PM,60.1,53.1,78,29.99,9.0,SE,15.0,-,0.01,Rain,Light Rain,140,2013-10-14 20:53:00
4:43 PM,60.8,53.6,77,29.97,10.0,SSE,12.7,-,0.00,,Overcast,150,2013-10-14 21:43:00
4:53 PM,60.1,54.0,80,29.96,10.0,SSE,16.1,23.0,0.00,,Overcast,150,2013-10-14 21:53:00
5:16 PM,60.8,55.4,82,29.96,10.0,SSE,15.0,23.0,N/A,,Overcast,150,2013-10-14 22:16:00
5:53 PM,61.0,55.0,81,29.95,10.0,SSE,16.1,21.9,N/A,,Overcast,150,2013-10-14 22:53:00
6:20 PM,60.8,55.4,82,29.95,10.0,SSE,13.8,21.9,N/A,,Overcast,150,2013-10-14 23:20:00
6:41 PM,60.8,55.4,82,29.94,10.0,SSE,17.3,24.2,N/A,,Overcast,150,2013-10-14 23:41:00
6:53 PM,61.0,55.9,83,29.93,10.0,SSE,18.4,25.3,N/A,,Overcast,150,2013-10-14 23:53:00
7:53 PM,61.0,57.0,87,29.91,10.0,SSE,20.7,26.5,0.01,,Clear,150,2013-10-15 00:53:00
8:32 PM,60.8,57.2,88,29.91,10.0,SSE,18.4,29.9,N/A,,Overcast,150,2013-10-15 01:32:00
8:53 PM,61.0,57.9,90,29.90,7.0,SSE,18.4,27.6,0.00,Rain,Light Rain,160,2013-10-15 01:53:00
9:19 PM,62.6,59.0,88,29.91,8.0,SSE,21.9,29.9,0.00,Rain,Light Rain,160,2013-10-15 02:19:00
9:33 PM,62.6,59.0,88,29.90,9.0,SSE,25.3,36.8,0.00,,Overcast,160,2013-10-15 02:33:00
9:53 PM,61.0,57.9,90,29.89,4.0,SSE,23.0,36.8,0.00,Rain,Light Rain,160,2013-10-15 02:53:00
10:01 PM,60.8,57.2,88,29.89,7.0,SSE,25.3,33.4,0.00,Rain,Light Rain,150,2013-10-15 03:01:00
10:15 PM,60.8,57.2,88,29.89,8.0,SSE,23.0,33.4,0.00,Rain,Light Rain,160,2013-10-15 03:15:00
10:53 PM,60.1,57.0,90,29.88,10.0,SSE,25.3,38.0,0.00,,Overcast,160,2013-10-15 03:53:00
11:36 PM,60.8,57.2,88,29.89,10.0,SSE,21.9,28.8,N/A,,Overcast,160,2013-10-15 04:36:00
11:53 PM,60.1,57.0,90,29.88,10.0,SSE,17.3,29.9,N/A,,Overcast,160,2013-10-15 04:53:00